Bennington, VT

3:08 PM EDT on May 29, 2017 (GMT -0400)
Morse State

Weather History for KDDH - December, 2013

Change the Weather History Date:

Sunday, December 22, 2013

  Actual Average Record
Temperature  
Mean Temperature 51 °F 25 °F  
Max Temperature 66 °F 34 °F 66 °F (2013)
Min Temperature 36 °F 17 °F 1 °F (2008)
Degree Days  
Heating Degree Days 14 40  
Month to date heating degree days 783 788  
Since 1 July heating degree days 2314 2401  
Cooling Degree Days 0 0  
Month to date cooling degree days 0 0  
Year to date cooling degree days 503 313  
Moisture  
Dew Point 44 °F    
Average Humidity 79    
Maximum Humidity 100    
Minimum Humidity 58    
Precipitation  
Precipitation 0.08 in 0.09 in 0.49 in (1998)
Month to date precipitation 1.68 2.03  
Year to date precipitation 43.58 39.94  
Sea Level Pressure  
Sea Level Pressure 29.78 in    
Wind  
Wind Speed 5 mph (NW)    
Max Wind Speed 22 mph    
Max Gust Speed 60 mph    
Visibility 5 miles    
Events Fog , Rain    
T = Trace of Precipitation, MM = Missing Value Source: NWS Daily Summary

Daily Weather History Graph

Daily Weather History Graph

Search for Another Location

Airport or City:

Trip Planner

Search our weather history database for the weather conditions in past years. The results will help you decide how hot, cold, wet, or windy it might be!

Date:

Astronomy

Dec. 22, 2013 Rise Set
Actual Time 7:21 AM EST 4:22 PM EST
Civil Twilight 6:48 AM EST 4:54 PM EST
Nautical Twilight 6:13 AM EST 5:30 PM EST
Astronomical Twilight 5:38 AM EST 6:05 PM EST
Moon 9:39 PM EST (12/22) 10:09 AM EST (12/22)
Length of Visible Light 10h 05m
Length of Day
9h 01m
Waning Gibbous, 77% of the Moon is Illuminated
Dec 22
Waning Gibbous
Dec 25
Last Quarter
Jan 1
New
Jan 7
First Quarter
Jan 15
Full

Hourly Weather History & Observations

Time (EST) Temp. Windchill Dew Point Humidity Pressure Visibility Wind Dir Wind Speed Gust Speed Precip Events Conditions
12:10 AM 46.4 °F - 44.6 °F 93% 29.82 in 1.5 mi Calm Calm - 0.00 in Rain Light Rain
12:18 AM 46.4 °F - 44.6 °F 93% 29.82 in 0.2 mi Calm Calm - 0.00 in Fog , Rain Light Rain
12:54 AM 44.1 °F 41.5 °F 43.0 °F 96% 29.82 in 0.2 mi NNW 4.6 mph - 0.01 in Fog , Rain Light Rain
1:54 AM 44.1 °F - 43.0 °F 96% 29.80 in 0.2 mi Calm Calm - 0.06 in Fog , Rain Light Rain
2:04 AM 44.6 °F 43.1 °F 42.8 °F 93% 29.79 in 0.5 mi NNW 3.5 mph - 0.00 in Fog , Rain Light Rain
2:11 AM 42.8 °F 41.1 °F 41.0 °F 93% 29.79 in 0.2 mi NNW 3.5 mph - 0.00 in Fog Fog
2:26 AM 44.6 °F 43.1 °F 42.8 °F 93% 29.79 in 0.2 mi North 3.5 mph - 0.00 in Fog , Rain Light Rain
2:35 AM 42.8 °F - 42.8 °F 100% 29.79 in 0.2 mi Calm Calm - 0.01 in Fog , Rain Light Rain
2:54 AM 43.0 °F - 41.0 °F 93% 29.80 in 0.2 mi Calm Calm - 0.01 in Fog Fog
3:54 AM 37.9 °F - 36.0 °F 93% 29.76 in 0.2 mi Calm Calm - N/A Fog Fog
4:24 AM 37.4 °F 33.8 °F 35.6 °F 93% 29.74 in 0.5 mi North 4.6 mph - N/A Fog Fog
4:54 AM 36.0 °F 33.3 °F 35.1 °F 97% 29.73 in 0.5 mi Variable 3.5 mph - N/A Fog Fog
5:06 AM 35.6 °F 32.8 °F 33.8 °F 93% 29.70 in 0.5 mi Variable 3.5 mph - N/A Fog Fog
5:20 AM 35.6 °F 29.9 °F 33.8 °F 93% 29.69 in 1.5 mi NNW 6.9 mph - N/A   Overcast
5:40 AM 35.6 °F - 35.6 °F 100% 29.69 in 3.0 mi Calm Calm - N/A   Overcast
5:54 AM 39.0 °F - 37.0 °F 93% 29.70 in 4.0 mi Calm Calm - N/A   Overcast
7:26 AM 62.6 °F - 55.4 °F 77% 29.70 in 10.0 mi SSW 10.4 mph 25.3 mph 0.00 in   Overcast
7:40 AM 62.6 °F - 55.4 °F 77% 29.69 in 10.0 mi SSW 15.0 mph 33.4 mph 0.00 in   Overcast
7:54 AM 63.0 °F - 55.9 °F 78% 29.70 in 10.0 mi SSW 16.1 mph 26.5 mph 0.00 in   Mostly Cloudy
8:44 AM 42.8 °F 39.3 °F 39.2 °F 87% 29.73 in 2.5 mi North 5.8 mph - N/A   Mostly Cloudy
8:54 AM 44.1 °F 40.1 °F 42.1 °F 93% 29.75 in 2.5 mi North 6.9 mph - N/A   Mostly Cloudy
9:02 AM 44.6 °F 42.2 °F 42.8 °F 93% 29.75 in 3.0 mi Variable 4.6 mph - N/A   Overcast
9:51 AM 42.8 °F 39.3 °F 39.2 °F 87% 29.75 in 1.8 mi North 5.8 mph - N/A   Overcast
9:52 AM 42.1 °F 39.2 °F 39.0 °F 89% 29.77 in 1.8 mi NNW 4.6 mph - N/A   Overcast
10:00 AM 41.0 °F 36.4 °F 39.2 °F 93% 29.77 in 2.5 mi North 6.9 mph - N/A   Overcast
10:18 AM 41.0 °F 38.0 °F 37.4 °F 87% 29.79 in 3.0 mi North 4.6 mph - N/A   Mostly Cloudy
10:54 AM 44.1 °F - 42.1 °F 93% 29.81 in 4.0 mi Calm Calm - 0.00 in Rain Light Rain
11:28 AM 42.8 °F 40.1 °F 41.0 °F 93% 29.79 in 1.8 mi NNW 4.6 mph - N/A   Overcast
11:47 AM 41.0 °F - 39.2 °F 93% 29.75 in 2.0 mi Calm Calm - N/A   Overcast
11:54 AM 42.1 °F - 39.9 °F 92% 29.75 in 2.5 mi Calm Calm - N/A   Mostly Cloudy
12:09 PM 44.6 °F - 42.8 °F 93% 29.71 in 5.0 mi Calm Calm - N/A   Mostly Cloudy
12:54 PM 64.0 °F - 53.1 °F 67% 29.70 in 10.0 mi South 9.2 mph - N/A   Overcast
1:54 PM 66.0 °F - 52.0 °F 60% 29.67 in 10.0 mi Variable 6.9 mph - N/A   Scattered Clouds
2:54 PM 60.1 °F - 51.1 °F 72% 29.75 in 10.0 mi NNW 4.6 mph - N/A   Clear
3:54 PM 55.9 °F - 50.0 °F 80% 29.78 in 10.0 mi Calm Calm - N/A   Clear
4:54 PM 64.0 °F - 52.0 °F 65% 29.80 in 10.0 mi SSW 8.1 mph - N/A   Scattered Clouds
5:54 PM 64.0 °F - 52.0 °F 65% 29.83 in 10.0 mi South 4.6 mph - N/A   Overcast
6:54 PM 64.0 °F - 52.0 °F 65% 29.83 in 10.0 mi South 11.5 mph 17.3 mph N/A   Mostly Cloudy
7:54 PM 64.0 °F - 50.0 °F 60% 29.83 in 10.0 mi South 9.2 mph 19.6 mph N/A   Mostly Cloudy
8:54 PM 64.0 °F - 50.0 °F 60% 29.85 in 10.0 mi South 4.6 mph - N/A   Mostly Cloudy
9:54 PM 57.0 °F - 48.9 °F 74% 29.91 in 10.0 mi SW 4.6 mph - N/A   Mostly Cloudy
10:31 PM 53.6 °F - 48.2 °F 82% 29.92 in 10.0 mi Calm Calm - N/A   Overcast
10:54 PM 52.0 °F - 46.0 °F 80% 29.93 in 10.0 mi North 3.5 mph - N/A   Overcast
11:54 PM 50.0 °F - 46.0 °F 86% 29.93 in 10.0 mi Calm Calm - N/A   Overcast